Regional Weather Roundup
Issued by NWS

Home | Current Version | Previous Version | Graphics & Text | Print | Product List | Glossary Off
Versions: 1 2 3 4 5 6 7 8 9 10 11 12 13 14 15 16 17 18 19 20 21 22 23 24 25 26 27 28 29 30 31 32 33 34 35 36 37 38 39 40 41 42 43 44 45 46 47 48 49 50

000
ASUS43 KTOP 180859
RWRKS

WEATHER ROUNDUP FOR KANSAS
NATIONAL WEATHER SERVICE GOODLAND KS
300 AM CST SUN FEB 18 2018

NOTE:  "FAIR" INDICATES FEW OR NO CLOUDS BELOW 12,000 FEET WITH NO
SIGNIFICANT WEATHER AND/OR OBSTRUCTIONS TO VISIBILITY.

KSZ001>006-013>018-027>032-041>047-181000-
NORTHWEST KANSAS

CITY           SKY/WX    TMP DP  RH WIND       PRES   REMARKS
GOODLAND       PTCLDY    39  16  39 S24G32    29.73F WCI  28
HAYS           CLOUDY    43  20  39 S24G31    29.92F
HILL CITY      CLOUDY    42  16  34 S9G22     29.87F
RUSSELL        CLOUDY    43  19  38 S20       29.94F
$$

KSZ061>065-074>080-084>089-181000-
SOUTHWEST KANSAS

CITY           SKY/WX    TMP DP  RH WIND       PRES   REMARKS
DODGE CITY     CLOUDY    41  21  44 S23G33    29.96F
ELKHART        MOCLDY    45  28  52 S28G37    29.93F
GARDEN CITY    CLOUDY    40  18  41 S17G26    29.92F WCI  31
GREAT BEND     CLOUDY    40  21  46 S13       29.99F WCI  32
LIBERAL        CLOUDY    40  20  44 S18       29.97F WCI  31
$$

KSZ066>073-081>083-090>101-181000-
SOUTHEAST KANSAS

CITY           SKY/WX    TMP DP  RH WIND       PRES   REMARKS
CHANUTE        CLOUDY    35  33  92 S7        30.15F
COFFEYVILLE    CLOUDY    36  34  92 S5        30.17F
HUTCHINSON     CLOUDY    40  24  53 S12       30.04F WCI  33
MEDICINE LODGE   N/A     37  25  61 S9        30.06F
NEWTON         CLOUDY    36  14  40 S14       30.07F WCI  27
PARSONS        CLOUDY    38  36  92 S6        30.18F
WICHITA INTL   CLOUDY    33  19  56 S9        30.08F
WICHITA JABRA  CLOUDY    36  19  50 S9        30.08F
WICHITA MCCONL CLOUDY    36  17  45 S9        30.08F
WINFIELD       CLOUDY    35  26  69 S10       30.13F WCI  27
$$

KSZ007>012-019>026-033>040-048>060-102>105-181000-
NORTHEAST KANSAS

CITY           SKY/WX    TMP DP  RH WIND       PRES   REMARKS
CONCORDIA      CLOUDY    38  14  37 S15       29.98F WCI  29
EMPORIA        CLOUDY    31  17  56 S10       30.10F WCI  22
LAWRENCE       CLOUDY    29  21  72 E7        30.13F
MANHATTAN      CLOUDY    42  18  37 S17       30.05F
OLATHE IND     CLOUDY    32  23  69 S8        30.15S
OLATHE EXE     CLOUDY    33  23  66 S7        30.15S
SALINA         CLOUDY    41  15  35 S13       30.04F
TOPEKA BILLARD CLOUDY    33  23  66 S8        30.11F
TOPEKA FORBES  CLOUDY    38  22  52 S10       30.10F WCI  31
$$



USA.gov is the U.S. government's official web portal to all federal, state and local government web resources and services.